Regional Weather Roundup
Issued by NWS

Home | Current Version | Previous Version | Text Only | Print | Product List | Glossary Off
Versions: 1 2 3 4 5 6 7 8 9 10 11 12 13 14 15 16 17 18 19 20 21 22 23 24 25 26 27 28 29 30 31 32 33 34 35 36 37 38 39 40 41 42 43 44 45 46 47 48 49 50

000
ASUS44 KMEG 270800
RWRTN
TENNESSEE HOURLY STATE WEATHER ROUNDUP
NATIONAL WEATHER SERVICE MEMPHIS TN
200 AM CST SAT DEC 27 2014

TNZ002-004-019-021-049-052-054-088>092-270900-
WEST TENNESSEE

CITY           SKY/WX    TMP DP  RH WIND       PRES   REMARKS
MEMPHIS INTL   CLOUDY    54  45  71 SE9       30.13F
NWS MEMPHIS      N/A     51 N/A N/A MISG        N/A
JACKSON        CLOUDY    52  41  66 S7        30.16R
DYERSBURG      CLOUDY    50  36  57 SE5       30.15S
UNION CITY     CLOUDY    48  43  81 S5        30.13S
PARIS          CLOUDY    46  39  76 S8        30.16R
LEXINGTON      CLOUDY    48  39  71 S7        30.16S
SAVANNAH       CLOUDY    48  39  71 S9        30.18F
$$

TNZ008-025-027-028-033-062-065-066-270900-
NORTH MIDDLE TENNESSEE

CITY           SKY/WX    TMP DP  RH WIND       PRES   REMARKS
NASHVILLE      CLOUDY    48  38  68 SE5       30.22R
CLARKSVILLE    CLOUDY    47  39  74 SE8       30.18F
COOKEVILLE     MOCLDY    46  36  66 CALM      30.23R
CROSSVILLE     CLOUDY    48  32  53 S6        30.24R
$$

TNZ061-075-076-078-094-096-097-270900-
SOUTH MIDDLE TENNESSEE

CITY           SKY/WX    TMP DP  RH WIND       PRES   REMARKS
FAYETTEVILLE   CLOUDY    46  36  66 MISG      30.22S
TULLAHOMA      MOCLDY    43  36  75 CALM      30.24R
WINCHESTER     PTCLDY    45  36  70 S9        30.24S
SHELBYVILLE    CLOUDY    45  39  81 SE3       30.24R
$$

TNZ017-018-042-046-047-270900-
NORTHEAST TENNESSEE

CITY           SKY/WX    TMP DP  RH WIND       PRES   REMARKS
TRI CITIES     CLOUDY    41  32  70 CALM      30.28R
ELIZABETHTON   SUNNY     37  28  70 CALM      30.27R
$$

TNZ012-013-036-069-073-074-270900-
CENTRAL EAST TENNESSEE

CITY           SKY/WX    TMP DP  RH WIND       PRES   REMARKS
KNOXVILLE      MOCLDY    39  35  86 CALM      30.28R
OAK RIDGE      MOCLDY    39  36  89 CALM      30.29R
GATLINBURG     MOSUNNY   36  34  93 E3        30.27S
$$

TNZ083-085-099-270900-
SOUTHEAST TENNESSEE

CITY           SKY/WX    TMP DP  RH WIND       PRES   REMARKS
CHATTANOOGA    PTCLDY    39  37  92 CALM      30.28R
$$

SKY/WX REPORTED AS FAIR MEANS FEW OR NO CLOUDS BELOW
12 THOUSAND FEET.



USA.gov is the U.S. government's official web portal to all federal, state and local government web resources and services.